Regional Weather Roundup
Issued by NWS Sterling, VA

Home | Current Version | Previous Version | Graphics & Text | Print | Product List | Glossary On
Versions: 1 2 3 4 5 6 7 8 9 10 11 12 13 14 15 16 17 18 19 20 21 22 23 24 25 26 27 28 29 30 31 32 33 34 35 36 37
000
ASUS41 KLWX 230410
RWRLWX

REGIONAL WEATHER ROUNDUP
NATIONAL WEATHER SERVICE BALTIMORE MD/WASHINGTON DC
1200 AM EDT THU OCT 23 2014

Note: "FAIR" indicates few or no clouds below 12,000 feet
with no significant weather and/or obstructions to visibility.
 TC=TEMPERATURE CELSIUS

 * =Non NWS site. Station does not report precipitation (e.g. rain,
    snow, etc.), thunder, or fog.

DCZ001-MDZ009-015-VAZ040>042-051-053>054-230500-
WASHINGTON METRO

CITY           SKY/WX    TMP DP  RH WIND       PRES   REMARKS
WASHINGTON NAT MOCLDY    55  42  61 NW18G28   29.93F
DULLES         MOCLDY    50  42  74 NW15G22   29.96F
ANDREWS AFB    CLOUDY    52  44  73 NW17G26   29.91F
FT BELVOIR     CLOUDY    53  43  68 NW15G25   29.94F
QUANTICO       MOCLDY    53  42  66 N15G29    29.96S
COLLEGE PARK*  CLOUDY    54  45  71 NW7       29.92F
LEESBURG*      CLOUDY    52  45  76 N17G25    29.98S
MANASSAS*      MOCLDY    52  45  76 NW12G20   29.97S
GAITHERSBURG*  CLOUDY    50  43  76 NW10      29.98S

$$

MDZ006>007-011-014-230500-
BALTIMORE METRO

CITY           SKY/WX    TMP DP  RH WIND       PRES   REMARKS
BWI AIRPORT    MOCLDY    53  43  68 NW15G24   29.89F
MD SCIENCE CTR   N/A     54  43  66 MISG      29.89F
MARTIN STATE   PTCLDY    54  46  76 W15G25    29.89F
ANNAPOLIS      CLOUDY    56  46  69 NW15G23   29.87F
FORT MEADE*    CLOUDY    52  43  71 NW12      29.93F

$$

MDZ012-015-019>023-230500-
MARYLAND EASTERN SHORE

CITY           SKY/WX    TMP DP  RH WIND       PRES   REMARKS
OCEAN CITY     CLOUDY    53  48  83 NW15G26   29.78F
SALISBURY      CLOUDY    56  47  71 NW15G28   29.81F
BAY BRIDGE AP*   N/A     54  45  71 NW16G24   29.87F
CAMBRIDGE*     CLOUDY    55  46  71 NW14G23   29.84F VSB<1/4
EASTON*        MOCLDY    55  48  77 N13G24    29.88F

$$

MDZ017>025-230500-
SOUTHERN MARYLAND

CITY           SKY/WX    TMP DP  RH WIND       PRES   REMARKS
PATUXENT RIVER CLOUDY    54  47  77 NW15G24   29.87F
ST INIGOES     CLOUDY    54  45  71 NW9       29.88F
LEONARDTOWN*   CLOUDY    52  45  76 NW10G26   29.90F

$$

MDZ003>005-230500-
NORTH CENTRAL MARYLAND

CITY           SKY/WX    TMP DP  RH WIND       PRES   REMARKS
FREDERICK*     CLOUDY    55  43  62 NW10G16   29.99S
HAGERSTOWN APT CLEAR     50  40  68 NW9       29.99S
WESTMINSTER*   CLOUDY    52  45  76 NW7G18    29.92F

$$

MDZ501>502-230500-
WESTERN MARYLAND

CITY           SKY/WX    TMP DP  RH WIND       PRES   REMARKS
OAKLAND*       FOG       37 N/A N/A NW9G17    30.08F VSB<1/4
CUMBERLAND*    CLOUDY    52  41  66 NW7       30.11S

$$

VAZ025>031-230500-
SHENANDOAH VALLEY

CITY           SKY/WX    TMP DP  RH WIND       PRES   REMARKS
WINCHESTER*    PTCLDY    52  37  58 NW16      30.00F
FRONT ROYAL*   CLOUDY    50  41  71 NW6G18    30.02S
LURAY*         MOCLDY    52  43  71 NW9       30.03F
NEW MARKET*    CLOUDY    51  40  68 CALM      30.05F
STAUNTON*      CLOUDY    50  40  68 CALM      30.07S
WAYNESBORO*    MOCLDY    46  39  79 W5        30.05R

$$

WVZ021-048>050-054>055-230500-
EASTERN WEST VIRGINIA PANHANDLE

CITY           SKY/WX    TMP DP  RH WIND       PRES   REMARKS
MARTINSBURG    MOCLDY    51  39  63 NW12G20   30.01F
PETERSBURG*    CLOUDY    51  40  63 NW5       30.11S

$$

VAZ036>039-050-230500-
CENTRAL FOOTHILLS

CITY           SKY/WX    TMP DP  RH WIND       PRES   REMARKS
CHARLOTTESVILL CLEAR     53  39  59 NW7       29.99F
CULPEPER*      CLEAR     54  43  66 NW10G21   29.98F
ORANGE*        CLEAR     52  43  71 W10       29.98F
GORDONSVILLE*  FAIR      49  41  73 NW7       29.97F
WARRENTON*     FAIR      53  47  81 NW12G22   29.97F

$$

VAZ055>057-230500-
NORTH AND CENTRAL PIEDMONT

CITY           SKY/WX    TMP DP  RH WIND       PRES   REMARKS
FREDERICKSBRG* PTCLDY    53  43  69 NW12G18   29.95F
STAFFORD*      PTCLDY    51  41  69 NW12G20   30.00S

$$

NCZ024-NYZ072-PAZ021-071-VAZ022-071-230500-
OTHER REGIONAL OBSERVATIONS

CITY           SKY/WX    TMP DP  RH WIND       PRES   REMARKS
NEW YORK CITY  CLOUDY    51  47  86 MISG      29.76R
PHILADELPHIA   RAIN      53  47  79 NW17      29.79F
PITTSBURGH     CLOUDY    45  40  82 N8        30.17F
ROANOKE        PTCLDY    51  38  60 N12       30.11S
RICHMOND       CLOUDY    54  42  64 NW14G23   29.95F
RALEIGH        CLEAR     52  40  63 NW5       30.02F

$$

ANZ530>537-230500-
MARINE OBSERVATIONS

STATION/POSITION TIME  TEMP    WIND        PRES
                       AIR SEA DIR/SP/G
                 (UTC) (F)     (DEG/KT/KT) (MB)
THOMAS PT LIGHT  0400   54 62  320/ 18/ 22 1012.3F
BALT KEY BRIDGE  0400   55     300/ 23/ 28 1011.5F
COVE POINT       0400   56     340/ 25/ 30 1011.1F
LEWISETTA        0400   56 61  330/ 18/ 25 1011.9S
SOLOMONS ISLAND  0400      64                N/A
PINEY POINT      0400          340/ 26/ 29   N/A

$$




USA.gov is the U.S. government's official web portal to all federal, state and local government web resources and services.